Tracking 27405 objects as of 2-Jun-2023
HD Live streaming from Space Station
objects crossing your sky now

ONEWEB-0299

Track ONEWEB-0299 now!
10-day predictions
ONEWEB-0299 is classified as:


NORAD ID: 49088
Int'l Code: 2021-075P
Perigee: 1,199.3 km
Apogee: 1,202.4 km
Inclination: 87.9 °
Period: 109.3 minutes
Semi major axis: 7571 km
RCS: Unknown
Launch date: August 21, 2021
Source: United Kingdom (UK)
Launch site: TYURATAM MISSILE AND SPACE COMPLEX (TTMTR)
Your satellite tracking list
Your tracking list is empty




NASA's NSSDC Master Catalog

Two Line Element Set (TLE):
1 49088U 21075P   23152.56410221 -.00000022  00000-0 -90604-4 0  9997
2 49088  87.9181 226.7178 0001990 108.8590 251.2758 13.17650457 87215
Source of the keplerian elements: AFSPC